Farmington, NM

7:36 AM MST on November 20, 2017 (GMT -0700)
Four Corners Regional

Weather History for KFMN - January, 2013

Change the Weather History Date:

Friday, January 11, 2013

  Actual Average Record
Temperature  
Mean Temperature 24 °F -  
Max Temperature 39 °F 41 °F 55 °F (2007)
Min Temperature 3 °F 20 °F -2 °F (2011)
Degree Days  
Heating Degree Days 42    
Moisture  
Dew Point 13 °F    
Average Humidity 63    
Maximum Humidity 100    
Minimum Humidity 24    
Precipitation  
Precipitation 0.04 in - - ()
Sea Level Pressure  
Sea Level Pressure 29.80 in    
Wind  
Wind Speed 16 mph (West)    
Max Wind Speed 25 mph    
Max Gust Speed 37 mph    
Visibility 9 miles    
Events Fog , Snow    
Averages and records for this station are not official NWS values.
T = Trace of Precipitation, MM = Missing Value Source: NWS Daily Summary

Daily Weather History Graph

Daily Weather History Graph

Search for Another Location

Airport or City:

Trip Planner

Search our weather history database for the weather conditions in past years. The results will help you decide how hot, cold, wet, or windy it might be!

Date:

Astronomy

Jan. 11, 2013 Rise Set
Actual Time 7:25 AM MST 5:16 PM MST
Civil Twilight 6:57 AM MST 5:45 PM MST
Nautical Twilight 6:25 AM MST 6:17 PM MST
Astronomical Twilight 5:53 AM MST 6:48 PM MST
Moon 7:02 AM MST (1/11) 5:36 PM MST (1/11)
Length of Visible Light 10h 48m
Length of Day
9h 51m
Waning Crescent, 0% of the Moon is Illuminated
Jan 11
Waning Crescent
Jan 11
New
Jan 18
First Quarter
Jan 26
Full
Feb 3
Last Quarter

Hourly Weather History & Observations

Time (MST) Temp. Windchill Dew Point Humidity Pressure Visibility Wind Dir Wind Speed Gust Speed Precip Events Conditions
12:53 AM 37.0 °F 28.5 °F 24.1 °F 59% 29.64 in 10.0 mi South 13.8 mph 23.0 mph N/A   Overcast
1:53 AM 37.9 °F 28.9 °F 25.0 °F 60% 29.58 in 10.0 mi South 16.1 mph 24.2 mph N/A   Overcast
2:53 AM 37.9 °F 27.9 °F 25.0 °F 60% 29.55 in 10.0 mi SW 19.6 mph 27.6 mph N/A   Overcast
3:24 AM 33.8 °F 21.0 °F 28.4 °F 81% 29.57 in 3.0 mi WSW 25.3 mph 33.4 mph 0.00 in Snow Light Snow
3:27 AM 33.8 °F 21.6 °F 30.2 °F 87% 29.59 in 1.8 mi West 23.0 mph 35.7 mph 0.00 in Snow Light Snow
3:32 AM 30.2 °F 16.5 °F 28.4 °F 93% 29.59 in 0.5 mi West 24.2 mph 36.8 mph 0.00 in Fog , Snow Snow
3:37 AM 28.4 °F 15.1 °F 28.4 °F 100% 29.59 in 0.2 mi West 20.7 mph 36.8 mph 0.01 in Fog , Snow Snow
3:53 AM 28.0 °F 14.6 °F 27.0 °F 96% 29.62 in 2.0 mi West 20.7 mph 26.5 mph 0.04 in Snow Light Snow
3:59 AM 28.4 °F 15.1 °F 26.6 °F 93% 29.61 in 5.0 mi West 20.7 mph 28.8 mph 0.00 in Snow Light Snow
4:07 AM 28.4 °F 15.4 °F 26.6 °F 93% 29.60 in 9.0 mi West 19.6 mph 34.5 mph 0.00 in   Overcast
5:04 AM 26.6 °F 14.7 °F 21.2 °F 80% 29.65 in 10.0 mi West 15.0 mph 27.6 mph N/A   Overcast
5:53 AM 26.1 °F 14.5 °F 19.0 °F 75% 29.68 in 10.0 mi SSW 13.8 mph - N/A   Mostly Cloudy
6:53 AM 21.0 °F 9.9 °F 15.1 °F 78% 29.76 in 10.0 mi West 10.4 mph - N/A   Partly Cloudy
7:53 AM 21.9 °F 11.7 °F 12.9 °F 68% 29.78 in 10.0 mi West 9.2 mph - N/A   Overcast
8:53 AM 23.0 °F 11.7 °F 12.0 °F 63% 29.83 in 10.0 mi WSW 11.5 mph - N/A   Scattered Clouds
9:53 AM 25.0 °F 10.6 °F 12.0 °F 58% 29.84 in 10.0 mi WSW 20.7 mph 26.5 mph N/A   Clear
10:53 AM 25.0 °F 9.5 °F 10.0 °F 53% 29.86 in 10.0 mi WSW 24.2 mph 29.9 mph N/A   Clear
11:53 AM 27.0 °F 14.7 °F 10.9 °F 51% 29.83 in 10.0 mi WSW 16.1 mph 25.3 mph N/A   Scattered Clouds
1:53 PM 25.0 °F 10.9 °F 9.0 °F 51% 29.83 in 10.0 mi West 19.6 mph 26.5 mph N/A   Mostly Cloudy
2:53 PM 26.1 °F 11.6 °F 1.9 °F 35% 29.84 in 10.0 mi West 21.9 mph 35.7 mph N/A   Clear
3:53 PM 26.1 °F 12.3 °F -0.9 °F 31% 29.89 in 10.0 mi West 19.6 mph 31.1 mph N/A   Clear
4:53 PM 24.1 °F 10.6 °F 1.9 °F 38% 29.92 in 10.0 mi West 17.3 mph - N/A   Clear
5:53 PM 21.0 °F 9.3 °F 1.0 °F 42% 29.96 in 10.0 mi West 11.5 mph - N/A   Clear
6:53 PM 16.0 °F 10.4 °F 1.0 °F 52% 30.01 in 10.0 mi NE 3.5 mph - N/A   Clear
7:53 PM 14.0 °F 2.0 °F 1.0 °F 56% 30.04 in 10.0 mi NE 9.2 mph - N/A   Clear
8:53 PM 9.0 °F - 1.0 °F 70% 30.05 in 10.0 mi Calm Calm - N/A   Clear
9:53 PM 8.1 °F -0.5 °F 1.9 °F 76% 30.05 in 10.0 mi North 4.6 mph - N/A   Overcast
10:53 PM 9.0 °F 2.4 °F 1.9 °F 73% 30.06 in 10.0 mi North 3.5 mph - N/A   Overcast
11:53 PM 3.9 °F -6.9 °F -2.0 °F 76% 30.07 in 10.0 mi North 5.8 mph - N/A   Clear